Reubens, ID (83548)

4:58 PM PST on February 13, 2016 (GMT -0800)
Camas Prairie | | Change Station
CLOSE
Current Station
Personal Weather Station
Location: Reubens, ID
Elevation: 3480 ft
Nearby Weather Stations

Elev 3480 ft 46.35 °N, 116.53 °W | Updated 6 seconds ago

Overcast
Overcast
39.5 °F
Feels Like 35 °F
N
6.9
Wind Variable Wind from West
Gusts 6.9 mph

Today
High -- | Low -- °F
--% Chance of Precip.
Yesterday
High -- | Low -- °F
Precip. -- in
Pressure 30.19 in
Visibility 10.0 miles
Clouds Overcast 11000 ft
Windchill 35 °F
Dew Point 29 °F
Humidity 66%
Rainfall in
Snow Depth Not available.
6:53 AM 5:08 PM
Waxing Crescent, 36% visible
METAR KGIC 140035Z AUTO 23007KT 10SM OVC110 05/00 A3019 RMK AO1
Pressure 30.19 in
Visibility 10.0 miles
Clouds Overcast 11000 ft
Windchill 35 °F
Dew Point 29 °F
Humidity 66%
Rainfall in
Snow Depth Not available.
6:53 AM 5:08 PM
Waxing Crescent, 36% visible
METAR KGIC 140035Z AUTO 23007KT 10SM OVC110 05/00 A3019 RMK AO1

10-Day Weather Forecast

Almanac

Astronomy

Feb. 13, 2016 Rise Set
Actual Time
Civil Twilight
Nautical Twilight
Astronomical Twilight
Moon
Length of Visible Light
Length of Day
Tomorrow will be .
, % of the Moon is Illuminated

Today's Extremes

State Highs State Lows

Community

WunderPhotos

Upload Photos

1,892,715 photos uploaded!

WunderBlog® & News

Nearby

Air Quality

  Air Quality AQ Index Pollutant
Not available.

Snow Depth

Station Depth Elevation

Earthquake Activity

City Distance Mag. Time & Date
Minimum magnitude displayed is 2.5.

Coastal Water Temperatures

Place Temperature

Stations

Nearby Weather Stations

Station Location Temp. Windchill Dew Point Humidity Wind Precip. Elev Updated Type
                   

Watches & Warnings

There are currently no watches in effect.